Location: *
(37.5724°S, 58.0067°E)
Time: 02:05:46
(UTC+00:00)

Cosmos 1733 - Pass Details

Date: 24 June 2021
Orbit: 503 x 521 km, 82.5° (Epoch: 02 August)

Event Time Altitude Azimuth Distance (km) Brightness Sun altitude
Rises 01:58:58 0° 165° (SSE) 2,643 6.8 -16.2°
Reaches altitude 10° 02:02:13 10° 135° (SE) 1,747 6.2 -15.6°
Maximum altitude 02:03:57 13° 107° (ESE) 1,579 6.4 -15.2°
Drops below altitude 10° 02:05:41 10° 80° (E) 1,738 7.2 -14.9°
Sets 02:08:53 0° 50° (NE) 2,615 8.2 -14.3°
